Tracking 19634 objects as of 21-May-2019
HD Live streaming from Space Station
objects crossing your sky now

UFO 2 (USA 95)

Track UFO 2 (USA 95) now!
UFO 2 (USA 95) is classified as:


NORAD ID: 22787
Int'l Code: 1993-056A
Perigee: 35,770.9 km
Apogee: 35,818.0 km
Inclination: 11.2 °
Period: 1,436.1 minutes
Semi major axis: 42165 km
RCS: Unknown
Launch date: September 3, 1993
Source: United States (US)
Launch site: AIR FORCE EASTERN TEST RANGE (AFETR)
aabbcc
Your satellite tracking list
Your tracking list is empty




NASA's NSSDC Master Catalog

Two Line Element Set (TLE):
1 22787U 93056A   19141.32063557  .00000115  00000-0  00000+0 0  9992
2 22787  11.1507  17.9277 0005586  68.3620 296.5497  1.00269283 92751
Source of the keplerian elements: McCants